Helicity
1 -1 1 -13 32 41 75 70 47 43 28 -31 -38 -18 -2 -10 44 103 22 50 43 42 37 40 14 21 29 61 72 71 57 45 44 55 58 58 57 55 61 59 50 41 35 38 33 29 31 35 41
-2 -3 -10 23 43 71 86 64 77 47 12 14 1 -11 -11 -16 25 32 50 96 38 84 49 44 39 39 37 60 74 70 62 54 39 40 58 55 57 67 64 61 54 58 59 44 32 24 25 34 39
1 -8 38 72 83 100 129 97 79 40 23 37 52 27 40 35 13 19 15 55 64 70 52 48 51 37 46 55 64 60 65 56 54 46 49 45 50 62 63 59 54 53 50 41 32 28 30 34 39
-4 3 39 84 83 76 94 89 66 50 50 57 73 109 45 44 34 15 -13 21 49 51 48 50 50 35 36 55 55 55 54 56 59 56 47 57 54 45 46 49 53 51 46 43 39 37 36 38 42
8 29 80 90 76 87 77 67 65 73 59 69 67 109 87 43 24 11 12 24 31 140 166 159 75 48 34 37 49 54 54 51 52 53 51 47 36 32 31 37 40 42 43 39 40 40 40 45 51
36 54 83 98 84 86 76 61 72 69 70 73 98 116 63 26 27 24 22 23 11 129 141 89 186 88 70 56 38 32 39 46 55 45 43 39 47 42 42 40 37 36 38 44 43 43 43 44 51
60 65 89 116 94 86 96 67 92 92 90 89 104 119 52 28 47 56 39 26 51 119 105 61 62 -12 15 73 91 75 26 42 55 62 63 61 57 50 48 46 42 39 39 37 42 45 42 42 44
58 68 83 84 98 88 101 90 90 91 87 77 77 90 78 44 83 70 55 55 104 125 118 88 83 -68 -36 31 127 94 67 26 56 74 81 98 106 103 102 96 83 58 56 50 47 44 46 50 58
55 74 71 72 94 65 80 84 73 69 80 80 73 61 41 76 101 84 62 57 106 119 106 101 96 43 44 -3 13 19 -16 130 114 109 99 102 100 103 107 107 105 107 101 79 64 63 65 63 70
61 67 56 64 72 75 69 77 58 62 75 81 57 53 70 89 78 71 54 57 65 94 96 73 59 82 95 74 102 112 121 115 119 131 124 117 108 102 119 110 102 109 104 98 114 122 91 85 70
51 66 64 62 76 89 83 67 83 87 60 89 67 50 82 81 76 64 46 43 49 71 101 100 57 42 35 48 85 99 99 100 94 130 163 118 106 104 97 94 103 106 111 96 100 99 102 82 65
64 68 88 75 83 105 108 102 93 100 102 78 46 60 99 80 82 73 62 56 58 78 101 105 83 78 74 52 76 74 90 107 134 151 139 138 133 128 137 136 124 112 111 105 112 105 93 110 54
54 56 68 70 63 75 98 106 116 78 80 71 61 94 91 85 75 73 70 69 76 82 88 97 93 99 103 102 77 84 86 96 105 135 140 129 150 163 139 126 115 111 101 94 96 87 84 89 53
58 66 69 65 64 75 84 80 104 66 77 77 108 79 78 78 92 102 88 85 84 93 98 102 111 110 109 106 89 72 77 98 121 139 132 127 110 106 113 113 121 105 86 72 54 49 46 51 59
63 58 78 95 71 92 102 57 72 70 55 43 68 63 72 67 100 76 82 89 91 87 89 107 126 118 126 117 115 111 118 115 122 120 118 114 113 106 97 100 100 78 59 52 43 41 34 42 42
87 81 75 81 86 112 70 52 45 56 63 60 55 64 81 83 80 76 94 99 100 110 100 107 122 141 149 143 138 140 136 131 120 113 109 108 92 76 72 63 65 54 52 42 41 45 43 44 39
78 51 80 68 114 98 103 85 72 109 79 56 72 79 73 77 80 71 81 92 112 107 125 126 130 144 151 147 138 133 117 112 88 74 73 70 71 67 55 55 55 54 47 49 40 38 31 28 24
83 104 102 114 127 105 138 84 109 107 105 104 92 89 90 84 64 87 101 126 131 121 114 136 140 145 148 149 133 112 96 78 65 56 55 53 49 45 45 50 58 55 50 54 43 41 33 21 12
146 166 170 145 118 109 106 93 118 57 82 101 91 79 73 84 78 106 143 163 166 139 135 124 134 119 127 122 104 83 71 63 72 69 68 58 55 52 47 42 49 50 47 44 44 26 40 37 23
146 140 125 101 97 103 106 88 52 96 35 43 76 90 75 117 147 174 197 201 167 151 122 120 126 109 100 90 77 62 61 65 64 61 79 77 67 59 53 48 47 46 36 47 47 43 32 32 33
135 148 132 125 118 123 108 12 60 105 65 68 57 44 57 50 122 212 228 210 181 140 113 121 117 108 102 96 100 117 100 85 68 67 63 65 48 42 39 36 34 39 35 35 33 30 38 37 33
113 105 120 127 151 109 138 100 74 109 70 80 92 75 91 66 88 151 199 204 163 131 130 130 124 117 112 105 100 98 76 69 58 51 42 53 53 44 36 31 34 30 20 24 15 14 8 5 23
128 147 166 183 214 208 180 221 73 92 76 64 40 87 86 53 34 91 104 158 176 170 144 138 148 142 132 121 102 103 98 84 66 63 60 55 52 53 49 45 39 39 34 32 37 27 21 2 2
172 178 207 217 232 290 199 224 97 79 75 44 78 87 72 72 28 46 108 185 214 192 180 176 180 163 146 134 118 103 87 81 77 64 63 59 53 56 56 43 36 31 36 42 40 34 26 12 8
235 252 234 288 317 264 235 266 90 96 56 42 57 64 51 47 42 62 129 178 223 228 216 194 180 168 150 144 129 108 98 89 81 69 63 67 60 50 59 47 42 28 33 38 34 30 29 28 25
259 261 309 390 365 308 267 283 139 85 69 60 40 43 46 50 33 60 100 164 214 237 231 206 175 164 145 147 138 124 103 96 88 74 67 64 55 48 42 38 35 43 47 47 48 36 37 38 37
237 255 232 339 318 399 311 237 86 104 89 95 78 60 72 54 47 48 108 139 187 235 220 173 158 157 144 137 137 124 105 99 90 86 75 67 66 51 48 42 43 44 51 52 48 37 33 33 27
233 248 398 346 411 435 370 282 160 141 103 101 96 72 45 48 45 58 59 104 140 181 210 181 164 153 143 136 131 123 114 108 100 92 91 79 67 45 34 45 53 47 45 50 49 41 35 28 19
264 358 353 330 386 453 464 328 123 113 123 117 66 60 24 82 63 48 30 53 113 166 186 173 169 162 156 147 137 140 132 118 103 98 95 81 73 38 35 33 39 52 50 46 47 44 35 25 17
288 292 340 401 355 396 405 377 176 121 128 111 89 23 33 95 68 26 21 61 99 142 173 180 184 182 164 155 157 137 124 114 105 97 89 86 69 46 35 51 55 55 45 42 37 35 34 28 31
Wind_Speed
17 24 31 31 31 35 32 33 30 31 28 25 26 29 29 25 24 19 30 35 22 15 19 19 18 15 13 8 8 7 8 9 9 10 12 15 18 21 23 26 28 30 30 33 34 34 34 34 34
19 27 32 32 29 28 27 29 31 30 29 31 32 31 29 27 24 24 27 42 15 16 21 22 19 18 15 12 11 8 8 9 8 9 11 13 16 19 22 24 25 27 29 31 32 32 32 33 33
31 34 29 33 32 29 29 28 27 26 26 22 29 32 30 28 27 27 29 39 27 18 24 23 23 21 18 12 12 12 10 10 9 10 10 13 15 18 19 21 22 24 25 27 29 30 31 31 32
29 28 34 35 32 29 30 29 26 26 28 31 31 34 28 28 26 28 29 28 26 24 27 22 24 25 21 14 14 13 12 11 9 9 12 14 16 17 18 19 19 21 23 25 26 28 30 30 30
35 31 34 33 29 28 26 25 27 29 27 29 29 31 30 27 27 30 28 26 19 25 27 32 29 34 29 21 16 14 12 12 12 11 12 15 17 18 17 18 18 19 21 23 25 26 28 30 30
32 32 32 28 27 26 25 25 26 27 28 28 30 29 29 26 29 32 32 26 22 17 27 27 32 58 39 35 29 26 22 17 15 14 15 15 17 20 20 20 19 20 21 23 25 26 27 29 30
34 34 31 29 27 26 25 25 26 27 28 26 27 29 28 23 27 30 32 30 28 24 23 22 20 38 42 35 31 36 31 26 22 20 17 18 20 20 22 21 21 21 23 24 25 27 28 29 30
36 35 33 30 28 28 25 26 27 25 26 28 25 26 29 26 25 28 31 31 32 28 24 22 23 21 24 39 37 40 40 31 26 24 19 19 21 23 24 26 28 26 27 27 27 27 29 31 32
34 36 33 31 30 31 28 27 26 27 25 26 24 23 26 26 24 25 27 28 29 29 27 25 21 23 23 23 34 38 25 18 22 20 19 20 21 22 24 25 27 29 30 30 29 29 30 30 32
38 37 32 31 29 30 26 25 29 26 25 21 20 24 29 25 22 21 21 22 23 24 25 25 24 22 24 23 17 21 24 26 26 30 24 24 22 22 26 27 29 30 32 33 33 32 32 33 33
37 36 32 30 27 27 30 28 27 20 15 13 11 15 18 18 18 17 18 19 21 23 24 24 24 22 21 21 19 23 27 29 29 29 30 26 24 25 27 29 30 32 32 32 33 33 35 38 35
35 30 27 24 25 28 28 30 26 10 7 25 18 19 12 10 10 12 15 18 20 24 26 26 25 24 22 21 22 25 27 28 27 28 26 26 23 26 29 30 30 31 33 33 34 35 33 39 37
32 31 29 24 20 21 26 16 15 7 6 10 17 15 7 7 8 13 14 17 19 20 24 29 25 22 21 22 24 26 27 27 27 25 23 23 23 24 25 30 31 34 37 37 35 36 34 40 39
33 30 23 30 27 27 24 22 31 24 35 28 14 15 8 7 10 15 13 12 12 14 17 24 26 23 20 21 23 25 27 28 27 26 26 25 27 29 30 32 35 37 39 39 36 34 33 35 39
37 39 43 40 36 28 33 19 17 21 41 32 24 17 15 12 16 11 12 12 12 15 15 15 17 19 20 20 21 23 23 25 26 27 26 27 28 29 30 34 35 37 37 37 38 38 38 39 40
47 44 52 40 46 42 43 30 37 45 45 45 39 27 20 14 12 12 10 9 11 14 14 14 17 17 20 21 21 21 22 22 24 26 28 29 28 29 30 32 34 35 36 37 38 40 40 41 44
51 49 50 53 49 49 45 25 39 47 52 52 44 37 32 22 19 18 16 14 13 13 12 13 14 17 18 20 21 21 21 22 24 25 26 28 29 30 30 32 35 36 37 39 40 40 42 44 48
55 57 52 47 44 54 49 25 40 39 47 45 39 32 31 30 23 21 14 10 9 10 13 14 14 14 15 16 17 20 21 22 23 25 27 28 29 31 32 34 36 37 38 40 41 41 43 44 49
50 52 54 49 48 48 50 41 32 62 48 46 45 40 37 37 35 24 17 13 10 8 8 9 11 12 11 13 16 20 22 23 25 27 28 30 31 33 33 35 37 38 39 40 42 42 45 46 53
51 57 58 51 40 51 58 54 53 46 49 51 56 57 50 43 31 20 15 12 10 8 6 7 9 9 13 16 21 24 21 25 26 28 29 31 32 34 35 36 37 38 39 41 43 44 45 47 49
53 57 59 58 58 50 58 49 37 46 47 47 53 56 57 43 26 18 15 14 11 9 9 7 6 9 16 21 21 22 24 26 29 31 31 32 31 32 35 36 37 39 39 41 43 45 47 50 49
61 49 55 63 70 70 60 63 49 47 43 55 64 67 68 56 28 11 12 15 13 10 9 10 10 11 19 20 25 24 30 32 33 31 31 32 33 34 35 37 39 40 42 44 45 46 47 47 50
52 52 57 59 61 64 57 55 40 51 44 60 68 69 68 60 33 9 11 12 11 9 9 9 12 15 22 27 27 28 30 31 31 32 33 35 35 36 37 40 42 44 45 46 47 48 49 50 51
48 52 56 55 55 68 49 48 47 43 50 63 64 66 66 63 37 15 2 8 12 11 9 9 11 16 19 22 28 29 31 29 32 36 37 37 37 38 41 42 45 46 47 49 51 52 53 53 52
47 57 71 75 70 66 44 53 42 46 50 53 64 65 63 59 41 19 5 6 10 10 9 10 10 14 17 23 27 30 30 32 32 35 36 37 38 40 43 45 48 49 51 53 54 56 56 56 57
49 49 57 78 75 69 49 57 43 42 47 49 53 57 58 57 45 26 15 11 12 12 11 10 11 13 13 19 24 27 29 32 32 33 36 38 39 40 44 48 51 52 54 55 56 57 59 60 62
50 55 44 56 57 69 53 45 43 42 44 48 51 53 57 57 49 37 27 19 12 14 13 11 10 14 16 18 20 26 29 31 33 35 37 39 40 44 48 51 52 54 54 56 58 59 62 63 64
46 36 58 51 71 75 61 59 48 45 40 45 51 59 59 55 48 41 33 24 14 11 13 10 11 15 18 18 20 22 26 30 32 33 36 38 41 47 51 51 51 53 57 58 60 62 64 66 66
50 55 47 46 48 68 80 61 37 42 41 51 58 51 51 49 45 42 37 29 19 9 11 10 9 14 18 20 21 21 23 27 30 35 37 38 42 48 50 51 53 55 59 60 62 63 64 65 64
50 50 42 57 62 54 62 71 43 47 52 54 49 47 46 46 45 46 45 33 21 11 10 11 12 15 19 21 21 22 22 24 29 33 35 37 42 46 50 52 54 55 59 62 63 62 61 64 66
Wind_Direction
130 110 85 92 103 93 105 96 101 85 83 82 72 56 46 46 28 17 5 337 334 337 324 320 311 302 300 313 319 339 346 350 7 23 26 28 27 26 27 28 31 29 43 34 31 29 27 25 24
115 95 83 89 104 106 105 98 84 77 74 68 52 48 41 34 32 16 9 335 343 329 315 309 308 302 295 298 303 314 323 329 343 349 11 5 10 12 24 29 29 27 27 26 27 23 22 21 21
75 65 93 81 84 93 91 89 80 75 68 67 47 45 42 37 32 24 12 339 334 327 310 306 297 297 292 300 294 292 307 318 327 332 353 355 8 8 19 26 28 26 24 22 19 16 13 11 13
79 93 76 60 72 78 75 73 71 60 53 46 44 34 46 43 45 30 18 11 338 318 309 313 304 295 293 296 286 286 293 301 318 330 336 344 348 357 10 17 23 21 16 12 10 7 6 5 3
57 78 56 57 69 74 79 72 60 47 48 42 41 34 35 47 42 35 35 37 16 331 317 306 308 296 287 287 284 284 286 291 299 317 332 337 340 344 356 3 10 13 13 9 5 359 352 353 356
64 65 56 60 65 71 72 67 60 51 44 39 33 36 36 50 46 44 41 58 61 15 320 321 312 288 283 277 278 274 277 287 301 314 321 331 336 338 344 351 355 356 356 357 354 352 346 341 342
47 47 51 56 54 54 55 56 51 44 37 35 41 31 38 54 55 50 49 56 64 42 20 28 7 309 271 286 285 277 274 279 288 300 317 325 331 337 340 346 349 350 349 347 346 342 339 337 333
38 41 40 45 43 38 52 46 41 40 34 37 42 38 34 46 59 56 55 55 55 61 42 23 19 354 27 272 288 273 276 272 277 295 313 325 329 331 335 334 333 336 338 338 338 337 333 329 327
43 31 33 32 33 28 43 38 36 33 28 27 33 32 29 38 52 56 56 56 60 59 42 34 33 14 29 6 270 226 172 329 306 315 321 324 330 333 332 334 334 332 330 332 334 333 330 328 324
23 25 32 33 34 29 35 29 21 24 22 24 27 21 17 36 43 51 54 59 59 57 59 44 43 25 6 11 2 326 328 318 316 310 317 318 323 325 329 332 328 329 329 328 329 331 329 321 316
26 28 35 34 29 24 15 14 19 22 20 27 36 34 37 43 44 46 47 46 43 41 35 29 25 19 10 6 0 327 318 318 316 317 311 313 319 317 316 326 324 326 329 325 328 329 329 321 311
26 38 40 41 34 18 13 11 10 19 2 11 23 19 43 55 60 53 46 37 32 22 7 1 358 359 7 5 350 335 330 325 324 319 317 316 329 315 315 315 321 324 319 325 331 328 340 322 310
31 33 31 33 25 13 5 358 2 306 307 356 3 3 18 34 45 28 26 21 19 16 360 337 348 352 352 352 350 345 336 334 332 331 328 323 326 337 328 322 323 323 314 319 327 327 337 323 306
25 22 20 14 18 13 10 12 6 17 3 6 357 354 359 3 4 1 5 15 24 20 13 342 337 345 352 349 346 346 341 332 330 331 331 328 324 320 318 318 317 315 311 314 320 330 335 332 315
11 7 4 9 14 17 10 16 18 10 349 352 356 346 345 341 340 340 347 358 5 3 10 357 349 348 349 351 351 349 349 339 333 332 334 333 327 321 320 313 313 313 314 316 315 318 325 328 322
359 4 354 4 358 3 1 358 359 350 351 347 343 342 332 323 317 321 331 344 353 357 357 0 339 342 340 343 349 349 349 350 342 335 333 332 331 329 325 319 316 316 319 319 318 317 319 321 315
353 352 351 349 354 351 353 335 345 340 336 332 331 327 326 321 314 310 314 321 333 346 357 353 348 332 335 339 343 350 351 348 345 341 336 333 332 329 329 326 322 321 322 321 320 319 318 314 312
345 345 348 347 349 340 339 318 333 331 329 324 322 317 315 313 304 304 300 302 319 341 343 344 346 344 338 341 345 341 347 348 344 339 336 331 330 327 326 320 322 325 323 322 320 321 321 318 315
348 345 342 345 347 346 340 336 316 335 335 334 327 316 307 308 308 303 296 293 302 319 333 338 338 338 343 335 326 325 325 331 333 332 331 328 327 327 329 326 324 323 323 323 322 320 320 321 318
347 342 342 348 356 347 338 335 340 353 350 346 340 334 327 312 299 287 265 258 256 280 297 313 320 323 319 321 316 313 317 317 321 324 328 328 329 326 327 329 327 327 326 327 329 330 325 325 329
342 339 340 340 343 346 343 340 352 348 347 349 347 345 338 325 306 268 236 235 246 260 276 284 295 299 301 306 311 313 312 313 312 314 320 325 331 334 334 334 333 327 326 325 326 325 326 324 325
338 346 341 337 337 335 346 334 336 344 348 345 340 341 341 339 329 290 221 208 223 255 291 298 299 302 297 299 300 301 300 301 305 311 316 321 327 329 331 330 330 327 326 324 325 326 326 327 325
340 343 339 337 335 335 339 335 347 340 343 340 338 339 343 347 350 341 193 214 248 261 280 297 303 304 295 293 296 298 301 303 307 310 313 316 321 325 327 328 326 325 325 326 327 325 325 325 324
342 341 340 341 339 331 341 342 342 344 340 335 339 342 344 347 356 16 351 254 258 266 275 289 299 306 303 300 296 297 296 304 304 305 309 312 316 321 323 324 325 324 324 324 323 323 323 321 321
345 342 333 331 333 332 345 337 331 334 336 336 336 340 342 347 355 4 9 245 241 244 261 283 295 305 308 300 296 295 299 301 306 307 310 312 316 319 322 324 323 323 322 322 322 322 322 321 318
339 339 331 324 326 327 334 327 339 339 337 339 340 342 346 349 355 357 338 299 255 245 249 271 291 305 314 308 301 300 299 300 306 309 310 313 317 320 322 323 322 322 321 321 321 321 320 318 316
336 331 337 326 325 323 328 331 329 330 331 336 339 343 344 346 349 351 337 319 280 245 240 254 286 306 312 312 313 303 299 300 302 304 307 311 316 318 322 323 322 322 323 323 322 321 319 319 317
327 334 325 327 321 320 326 327 323 332 334 334 336 335 339 343 347 345 341 332 311 255 240 255 286 302 309 318 317 310 305 302 304 309 311 312 316 317 320 322 325 324 323 323 322 320 319 318 318
324 319 320 320 316 317 320 324 335 333 334 330 330 334 340 344 349 348 344 338 331 286 238 254 281 302 309 317 317 315 312 309 309 309 311 313 318 320 324 322 322 323 322 322 322 321 319 318 319
318 311 306 308 312 310 312 308 321 319 321 324 326 330 334 336 337 335 329 327 325 301 266 265 285 299 309 314 319 319 315 317 315 315 316 320 324 325 325 323 323 324 322 323 321 321 321 319 319